Find Starlink 33735

NORAD ID: 63474 Int'l Des: 2025-070 Owner: SPXS Country: US Constellation: starlink operational
LEOCIRCULAR

現在のビュー

3D地球を読み込み中...

About Starlink 33735

Starlink 33735 (NORAD 63474) is a starlink constellation satellite (v2 mini) launched Apr 6, 2025 by SPXS of US. It operates in LEO, CIRCULAR orbit with a mass of 575.00 kg.

次回通過

Passes for default location (London). Set your location on the main map for personalized predictions.

高度履歴

Loading altitude history...

軌道要素

1 63474U 25070Q 26235.78954513 .00014890 00000-0 54926-3 0 9999
2 63474 43.0008 35.9768 0001148 270.6427 89.4293 15.27595342 78532
Epoch: Aug 23, 2026 • Age: 31 hours

現在のステータス

高度 487.5 km
遠地点 / 近地点 N/A
速度 7.62 km/s
衛星直下点 -21.45°S, 125.17°W
打ち上げ日 Apr 6, 2025
運用期間 1.3 years
タイプ internet

技術仕様

分類 Payload
質量 575.00 kg
乾燥質量 530.00 kg
総質量 575.00 kg
長さ 0.30 m
直径 4.10 m
スパン 29.00 m
形状 Box + pan
製造者 SPXS
バスタイプ Starlink V2MO
フェーズステータス In Orbit
所有者/国 SPXS/US

Most Searched